CFG4801 EDDF-EDDL

Flight info

Callsign CFG4801
Flight time 0h 28m
Altitude 24000
Route MARUN6E/07C MARUN Y152 ARPEG Z850 ADEMI T854 DOMUX DOMUX1A
Aircraft A321/M-SDE3FGIJ1LORVWXYZ/LB1

Departure

Time 2026-04-14 16:54
Airport Frankfurt Main Airport (EDDF)

Arrival

Time 2026-04-14 17:22
Airport Düsseldorf Airport (EDDL)
Time Latitude Longitude Altitude Speed Heading
2026-04-14 16:31 50.04061 8.55691 351 ft 0 kts 160°
2026-04-14 16:48 50.04060 8.55691 351 ft 0 kts 160°
2026-04-14 16:50 50.04020 8.55713 357 ft 11 kts 166°
2026-04-14 16:50 50.03967 8.55607 357 ft 19 kts 251°
2026-04-14 16:50 50.03919 8.55410 358 ft 20 kts 249°
2026-04-14 16:50 50.03867 8.55201 349 ft 21 kts 249°
2026-04-14 16:51 50.03817 8.54977 355 ft 23 kts 250°
2026-04-14 16:51 50.03762 8.54738 354 ft 18 kts 248°
2026-04-14 16:51 50.03735 8.54709 353 ft 5 kts 199°
2026-04-14 16:51 50.03729 8.54707 346 ft 0 kts 194°
2026-04-14 16:52 50.03720 8.54704 353 ft 5 kts 192°
2026-04-14 16:52 50.03652 8.54721 351 ft 15 kts 158°
2026-04-14 16:53 50.03586 8.54814 351 ft 8 kts 81°
2026-04-14 16:53 50.03608 8.54907 352 ft 12 kts 71°
2026-04-14 16:53 50.03691 8.55253 350 ft 75 kts 70°
2026-04-14 16:53 50.03972 8.56411 381 ft 147 kts 68°
2026-04-14 16:54 50.04349 8.57921 1085 ft 152 kts 68°
2026-04-14 16:54 50.04721 8.59473 1918 ft 154 kts 68°
2026-04-14 16:54 50.05118 8.61119 2477 ft 174 kts 66°
2026-04-14 16:54 50.05787 8.62797 2950 ft 192 kts 44°
2026-04-14 16:55 50.07078 8.63595 3475 ft 215 kts
2026-04-14 16:55 50.08588 8.63249 4638 ft 216 kts 353°
2026-04-14 16:55 50.10073 8.63051 6015 ft 214 kts 359°
2026-04-14 16:55 50.11625 8.63003 6872 ft 236 kts 360°
2026-04-14 16:56 50.13363 8.62983 7568 ft 260 kts 359°
2026-04-14 16:56 50.15241 8.62937 8542 ft 272 kts 358°
2026-04-14 16:56 50.17176 8.62862 9549 ft 283 kts 356°
2026-04-14 16:56 50.19179 8.62754 10488 ft 295 kts 356°
2026-04-14 16:57 50.21314 8.62621 10997 ft 318 kts 356°
2026-04-14 16:57 50.23606 8.62477 11529 ft 339 kts 356°
2026-04-14 16:57 50.25995 8.62322 12449 ft 346 kts 356°
2026-04-14 16:57 50.28417 8.62159 13498 ft 350 kts 357°
2026-04-14 16:58 50.30859 8.61992 14488 ft 353 kts 357°
2026-04-14 16:58 50.33329 8.61829 15414 ft 356 kts 358°
2026-04-14 16:58 50.35819 8.61754 16373 ft 360 kts 359°
2026-04-14 16:58 50.38340 8.61750 17239 ft 365 kts 359°
2026-04-14 16:59 50.40895 8.61777 18144 ft 370 kts 360°
2026-04-14 16:59 50.43490 8.61821 18943 ft 375 kts 360°
2026-04-14 16:59 50.46105 8.62084 19703 ft 380 kts
2026-04-14 16:59 50.48744 8.62488 20484 ft 383 kts
2026-04-14 17:00 50.51419 8.62878 21269 ft 387 kts
2026-04-14 17:00 50.53198 8.63125 21757 ft 389 kts
2026-04-14 17:00 50.55908 8.63492 22492 ft 393 kts
2026-04-14 17:00 50.58648 8.63865 23219 ft 397 kts
2026-04-14 17:01 50.61412 8.64249 23881 ft 401 kts
2026-04-14 17:01 50.64203 8.64646 24115 ft 402 kts
2026-04-14 17:01 50.66983 8.65045 24181 ft 401 kts
2026-04-14 17:01 50.69766 8.65442 24190 ft 400 kts
2026-04-14 17:02 50.72537 8.65832 24193 ft 400 kts
2026-04-14 17:02 50.75306 8.66219 24192 ft 400 kts
2026-04-14 17:02 50.78085 8.66154 24197 ft 397 kts 352°
2026-04-14 17:02 50.80770 8.65178 24194 ft 396 kts 340°
2026-04-14 17:03 50.83260 8.63344 24193 ft 395 kts 328°
2026-04-14 17:03 50.85457 8.60761 24197 ft 395 kts 317°
2026-04-14 17:03 50.87248 8.57679 24195 ft 395 kts 310°
2026-04-14 17:03 50.89090 8.54233 24196 ft 395 kts 310°
2026-04-14 17:04 50.90867 8.50910 24196 ft 395 kts 310°
2026-04-14 17:04 50.92644 8.47583 24125 ft 397 kts 310°
2026-04-14 17:04 50.94419 8.44257 23599 ft 392 kts 310°
2026-04-14 17:04 50.96172 8.40973 22789 ft 389 kts 310°
2026-04-14 17:05 50.97910 8.37710 22033 ft 386 kts 310°
2026-04-14 17:05 50.99631 8.34468 21303 ft 382 kts 310°
2026-04-14 17:05 51.01474 8.31455 20592 ft 379 kts 319°
2026-04-14 17:05 51.03600 8.28931 19902 ft 375 kts 328°
2026-04-14 17:06 51.05722 8.26569 19237 ft 371 kts 316°
2026-04-14 17:06 51.07375 8.23440 18590 ft 368 kts 308°
2026-04-14 17:06 51.08940 8.20228 17866 ft 366 kts 308°
2026-04-14 17:06 51.10495 8.17044 17193 ft 363 kts 308°
2026-04-14 17:07 51.12048 8.13903 16562 ft 360 kts 309°
2026-04-14 17:07 51.13601 8.10790 15963 ft 357 kts 309°
2026-04-14 17:07 51.15141 8.07724 15362 ft 354 kts 308°
2026-04-14 17:07 51.16675 8.04671 14742 ft 351 kts 309°
2026-04-14 17:08 51.18196 8.01637 14126 ft 349 kts 309°
2026-04-14 17:08 51.19702 7.98628 13526 ft 346 kts 308°
2026-04-14 17:08 51.21197 7.95640 12907 ft 343 kts 309°
2026-04-14 17:08 51.22678 7.92681 12305 ft 339 kts 308°
2026-04-14 17:09 51.24143 7.89736 11691 ft 338 kts 308°
2026-04-14 17:09 51.25589 7.86803 11110 ft 335 kts 307°
2026-04-14 17:09 51.26685 7.83558 10552 ft 332 kts 290°
2026-04-14 17:09 51.27405 7.80079 10065 ft 327 kts 289°
2026-04-14 17:10 51.28087 7.76724 9926 ft 310 kts 289°
2026-04-14 17:10 51.28736 7.73530 9795 ft 294 kts 289°
2026-04-14 17:10 51.29352 7.70483 9583 ft 283 kts 289°
2026-04-14 17:10 51.29957 7.67477 9200 ft 278 kts 288°
2026-04-14 17:11 51.30548 7.64544 8726 ft 277 kts 288°
2026-04-14 17:11 51.31136 7.61618 8263 ft 275 kts 288°
2026-04-14 17:11 51.31723 7.58720 7832 ft 273 kts 288°
2026-04-14 17:11 51.32305 7.55844 7385 ft 271 kts 288°
2026-04-14 17:12 51.32883 7.52978 7207 ft 272 kts 288°
2026-04-14 17:12 51.33462 7.50109 6919 ft 270 kts 287°
2026-04-14 17:12 51.34036 7.47265 6491 ft 268 kts 287°
2026-04-14 17:12 51.34605 7.44435 6015 ft 267 kts 287°
2026-04-14 17:13 51.35171 7.41614 5556 ft 265 kts 287°
2026-04-14 17:13 51.35729 7.38811 5110 ft 264 kts 287°
2026-04-14 17:13 51.36282 7.36023 4669 ft 262 kts 287°
2026-04-14 17:13 51.36832 7.33262 4239 ft 260 kts 288°
2026-04-14 17:14 51.37384 7.30515 3804 ft 258 kts 288°
2026-04-14 17:14 51.37928 7.27796 3639 ft 257 kts 288°
2026-04-14 17:14 51.38471 7.25069 3521 ft 258 kts 287°
2026-04-14 17:14 51.39013 7.22332 3519 ft 258 kts 287°
2026-04-14 17:15 51.39553 7.19593 3517 ft 258 kts 287°
2026-04-14 17:15 51.40092 7.16857 3519 ft 252 kts 287°
2026-04-14 17:15 51.40599 7.14276 3517 ft 234 kts 287°
2026-04-14 17:15 51.41073 7.11870 3516 ft 219 kts 287°
2026-04-14 17:16 51.41518 7.09619 3513 ft 205 kts 287°
2026-04-14 17:16 51.41910 7.07489 3508 ft 196 kts 279°
2026-04-14 17:16 51.41881 7.05331 3513 ft 195 kts 256°
2026-04-14 17:16 51.41314 7.03379 3515 ft 195 kts 233°
2026-04-14 17:17 51.40489 7.01638 3514 ft 196 kts 233°
2026-04-14 17:17 51.39665 6.99893 3458 ft 196 kts 233°
2026-04-14 17:17 51.38854 6.98174 3275 ft 191 kts 233°
2026-04-14 17:17 51.38053 6.96477 3008 ft 190 kts 233°
2026-04-14 17:18 51.37260 6.94800 2756 ft 188 kts 233°
2026-04-14 17:18 51.36490 6.93173 2518 ft 178 kts 233°
2026-04-14 17:18 51.35768 6.91647 2259 ft 165 kts 233°
2026-04-14 17:18 51.35103 6.90243 2042 ft 153 kts 233°
2026-04-14 17:19 51.34484 6.88935 1859 ft 140 kts 233°
2026-04-14 17:19 51.33912 6.87724 1657 ft 133 kts 233°
2026-04-14 17:19 51.33361 6.86563 1471 ft 130 kts 233°
2026-04-14 17:19 51.32814 6.85410 1296 ft 129 kts 233°
2026-04-14 17:20 51.32269 6.84265 1121 ft 130 kts 233°
2026-04-14 17:20 51.31728 6.83123 942 ft 128 kts 233°
2026-04-14 17:20 51.31193 6.81997 770 ft 127 kts 233°
2026-04-14 17:20 51.30661 6.80876 592 ft 126 kts 234°
2026-04-14 17:21 51.30137 6.79764 423 ft 125 kts 234°
2026-04-14 17:21 51.29611 6.78661 254 ft 125 kts 233°
2026-04-14 17:21 51.29083 6.77550 135 ft 120 kts 234°
2026-04-14 17:21 51.28648 6.76641 126 ft 77 kts 233°
2026-04-14 17:22 51.28416 6.76153 125 ft 31 kts 230°
2026-04-14 17:22 51.28278 6.76011 126 ft 17 kts 204°
2026-04-14 17:22 51.28216 6.75968 128 ft 0 kts 203°
2026-04-14 17:22 51.28213 6.75965 128 ft 4 kts 203°
2026-04-14 17:23 51.28148 6.75915 125 ft 12 kts 206°
2026-04-14 17:23 51.28069 6.75854 124 ft 13 kts 204°
2026-04-14 17:23 51.27982 6.75824 128 ft 14 kts 184°
2026-04-14 17:23 51.27882 6.75817 125 ft 15 kts 182°
2026-04-14 17:24 51.27844 6.75895 129 ft 10 kts 96°
2026-04-14 17:24 51.27842 6.76009 129 ft 11 kts 92°
2026-04-14 17:24 51.27861 6.76125 125 ft 11 kts 46°
2026-04-14 17:24 51.27894 6.76208 126 ft 0 kts 62°
2026-04-14 17:25 51.27897 6.76217 125 ft 1 kts 62°
2026-04-14 17:25 51.27901 6.76231 130 ft 2 kts 64°
2026-04-14 17:25 51.27905 6.76244 129 ft 1 kts 64°